This is the latest recevied weather packets stored in our database for station/object N4BBA. If no packets are shown the sender has not sent any weather packets the latest 10 day(s).
| Time | Temp. | Humidity | Pressure | Rain* | Wind** | Luminosity | Snow |
|---|---|---|---|---|---|---|---|
| 1778153069 | 19.44° C | 98% | 1010 hPa | 0 mm | - | 14 W/m² | - |
| 1778152766 | 19.44° C | 98% | 1010.1 hPa | 0 mm | - | 6 W/m² | - |
| 1778152464 | 19.44° C | 98% | 1010.1 hPa | 0 mm | - | 3 W/m² | - |
| 1778152160 | 18.89° C | 98% | 1010 hPa | 0 mm | - | 3 W/m² | - |
| 1778151856 | 18.89° C | 98% | 1009.9 hPa | 1.27 mm | - | 3 W/m² | - |
| 1778151553 | 18.89° C | 98% | 1009.9 hPa | 3.05 mm | - | 5 W/m² | - |
| 1778151249 | 18.89° C | 98% | 1009.9 hPa | 3.05 mm | - | 3 W/m² | - |
| 1778150946 | 18.89° C | 98% | 1009.8 hPa | 3.05 mm | - | 3 W/m² | - |
| 1778150643 | 18.89° C | 98% | 1009.8 hPa | 1.78 mm | - | 2 W/m² | - |
| 1778150339 | 18.89° C | 98% | 1009.8 hPa | 1.27 mm | - | 1 W/m² | - |
| 1778150036 | 18.89° C | 98% | 1009.6 hPa | 3.05 mm | - | 1 W/m² | - |
| 1778149732 | 18.89° C | 98% | 1009.9 hPa | 1.78 mm | - | 1 W/m² | - |
| 1778149428 | 18.89° C | 98% | 1009.8 hPa | 1.27 mm | - | 0 W/m² | - |
| 1778149125 | 18.89° C | 98% | 1009.7 hPa | 3.05 mm | - | 0 W/m² | - |
| 1778148825 | 18.89° C | 98% | 1009.6 hPa | 3.05 mm | - | 0 W/m² | - |
| 1778148522 | 18.89° C | 98% | 1009.5 hPa | 1.27 mm | - | 0 W/m² | - |
| 1778148220 | 18.89° C | 98% | 1009.6 hPa | 1.78 mm | - | 0 W/m² | - |
| 1778147918 | 18.89° C | 98% | 1009.6 hPa | 3.05 mm | - | 0 W/m² | - |
| 1778147614 | 18.89° C | 98% | 1009.8 hPa | 3.05 mm | - | 0 W/m² | - |
| 1778147312 | 18.89° C | 98% | 1009.4 hPa | 3.56 mm | - | 0 W/m² | - |
| 1778147008 | 18.89° C | 98% | 1009.5 hPa | 1.78 mm | - | 0 W/m² | - |
| 1778146705 | 18.89° C | 98% | 1009.5 hPa | 1.27 mm | - | 0 W/m² | - |
| 1778146403 | 18.89° C | 98% | 1009.4 hPa | 1.27 mm | - | 0 W/m² | - |
| 1778146101 | 18.89° C | 98% | 1009.6 hPa | 1.78 mm | - | 0 W/m² | - |
| 1778145797 | 18.89° C | 98% | 1009.5 hPa | 1.27 mm | - | 0 W/m² | - |
* Rain latest hour (hover to see other rain measurements)
** Current wind speed in m/s (hover to see current wind gust speed)